• En España
  • Lista de países
  • Para 7 días
  • Temperatura del agua
  • Mapa Satelital
  • El tiempo en el mapa
  • Informadores
  • user-avatar
    Iniciar sesión

    Tiempo cada hora Kossuli

    Hoy, 16 Agosto, Jueves

    Tiempo Temperatura Precipitaciones Viento Presión Humedad
    00:00 +16°C° 0 mm 2 mps 744 mmHg 98%
    01:00 +16°C° 0 mm 2 mps 744 mmHg 98%
    02:00 +15°C° 0 mm 2 mps 745 mmHg 98%
    03:00 +15°C° 0 mm 2 mps 745 mmHg 98%
    04:00 +15°C° 0 mm 2 mps 746 mmHg 98%
    05:00 +14°C° 0 mm 2 mps 746 mmHg 97%
    06:00 +15°C° 0 mm 2 mps 746 mmHg 94%
    07:00 +15°C° 0 mm 2 mps 747 mmHg 91%
    08:00 +16°C° 0 mm 2 mps 747 mmHg 88%
    09:00 +17°C° 0 mm 2 mps 748 mmHg 78%
    10:00 +19°C° 0 mm 2 mps 748 mmHg 68%
    11:00 +20°C° 0 mm 2 mps 748 mmHg 58%
    12:00 +21°C° 0 mm 2 mps 749 mmHg 56%
    13:00 +21°C° 0 mm 2 mps 749 mmHg 54%
    14:00 +23°C° 0 mm 2 mps 749 mmHg 51%
    15:00 +23°C° 0 mm 2 mps 749 mmHg 55%
    16:00 +23°C° 0 mm 2 mps 749 mmHg 59%
    17:00 +22°C° 0 mm 1 mps 750 mmHg 62%
    18:00 +20°C° 0 mm 1 mps 750 mmHg 69%
    19:00 +18°C° 0 mm 1 mps 750 mmHg 75%
    20:00 +15°C° 0 mm 1 mps 751 mmHg 81%
    21:00 +14°C° 0 mm 1 mps 751 mmHg 83%
    22:00 +14°C° 0 mm 1 mps 751 mmHg 85%
    23:00 +12°C° 0 mm 0 mps 752 mmHg 87%

    Mañana, 17 Agosto, Viernes

    Tiempo Temperatura Precipitaciones Viento Presión Humedad
    00:00 +12°C° 0 mm 0 mps 752 mmHg 88%
    01:00 +11°C° 0 mm 0 mps 752 mmHg 88%
    02:00 +11°C° 0 mm 0 mps 753 mmHg 89%
    03:00 +11°C° 0 mm 0 mps 753 mmHg 88%
    04:00 +11°C° 0 mm 0 mps 753 mmHg 88%
    05:00 +11°C° 0 mm 0 mps 753 mmHg 88%
    06:00 +13°C° 0 mm 0 mps 754 mmHg 79%
    07:00 +16°C° 0 mm 1 mps 754 mmHg 71%
    08:00 +20°C° 0 mm 1 mps 754 mmHg 63%
    09:00 +21°C° 0 mm 1 mps 754 mmHg 58%
    10:00 +22°C° 0 mm 1 mps 754 mmHg 52%
    11:00 +24°C° 0 mm 1 mps 754 mmHg 47%
    12:00 +24°C° 0 mm 1 mps 754 mmHg 46%
    13:00 +24°C° 0 mm 1 mps 754 mmHg 44%
    14:00 +25°C° 0 mm 1 mps 753 mmHg 43%
    15:00 +24°C° 0 mm 1 mps 753 mmHg 48%
    16:00 +24°C° 0 mm 1 mps 753 mmHg 53%
    17:00 +23°C° 0 mm 1 mps 753 mmHg 58%
    18:00 +21°C° 0 mm 1 mps 753 mmHg 64%
    19:00 +19°C° 0 mm 1 mps 753 mmHg 69%
    20:00 +15°C° 0 mm 1 mps 753 mmHg 75%
    21:00 +15°C° 0 mm 1 mps 753 mmHg 76%
    22:00 +14°C° 0 mm 1 mps 753 mmHg 78%
    23:00 +13°C° 0 mm 1 mps 754 mmHg 80%

    Pasado mañana, 18 Agosto, Sábado

    Tiempo Temperatura Precipitaciones Viento Presión Humedad
    00:00 +13°C° 0 mm 1 mps 754 mmHg 81%
    01:00 +13°C° 0 mm 1 mps 754 mmHg 83%
    02:00 +12°C° 0 mm 1 mps 754 mmHg 84%
    03:00 +12°C° 0 mm 1 mps 754 mmHg 85%
    04:00 +12°C° 0 mm 1 mps 754 mmHg 85%
    05:00 +12°C° 0 mm 1 mps 754 mmHg 86%
    06:00 +14°C° 0 mm 1 mps 754 mmHg 79%
    07:00 +16°C° 0 mm 1 mps 754 mmHg 72%
    08:00 +19°C° 0 mm 1 mps 754 mmHg 65%
    09:00 +20°C° 0 mm 2 mps 754 mmHg 60%
    10:00 +21°C° 0 mm 2 mps 754 mmHg 54%
    11:00 +24°C° 0 mm 2 mps 754 mmHg 49%
    12:00 +24°C° 0 mm 2 mps 754 mmHg 48%
    13:00 +25°C° 0 mm 2 mps 753 mmHg 47%
    14:00 +25°C° 0 mm 2 mps 753 mmHg 45%
    15:00 +25°C° 0 mm 2 mps 753 mmHg 50%
    16:00 +25°C° 0 mm 2 mps 752 mmHg 55%
    17:00 +24°C° 0 mm 1 mps 752 mmHg 59%
    18:00 +22°C° 0 mm 1 mps 752 mmHg 65%
    19:00 +20°C° 0 mm 1 mps 752 mmHg 72%
    20:00 +18°C° 0 mm 1 mps 752 mmHg 78%
    21:00 +16°C° 0 mm 1 mps 752 mmHg 80%
    22:00 +16°C° 0 mm 1 mps 752 mmHg 82%
    23:00 +15°C° 0 mm 2 mps 752 mmHg 85%

    19 Agosto, Domingo

    Tiempo Temperatura Precipitaciones Viento Presión Humedad
    00:00 +14°C° 0 mm 2 mps 752 mmHg 86%
    01:00 +14°C° 0 mm 2 mps 752 mmHg 88%
    02:00 +13°C° 0 mm 2 mps 752 mmHg 90%
    03:00 +13°C° 0 mm 2 mps 752 mmHg 91%
    04:00 +13°C° 0 mm 2 mps 751 mmHg 91%
    05:00 +13°C° 0 mm 2 mps 751 mmHg 92%
    06:00 +15°C° 0 mm 2 mps 751 mmHg 85%
    07:00 +17°C° 0 mm 3 mps 751 mmHg 77%
    08:00 +19°C° 0 mm 3 mps 751 mmHg 70%
    09:00 +21°C° 0 mm 4 mps 750 mmHg 65%
    10:00 +22°C° 0 mm 4 mps 750 mmHg 59%
    11:00 +25°C° 0 mm 5 mps 749 mmHg 54%
    12:00 +26°C° 0 mm 5 mps 749 mmHg 54%
    13:00 +26°C° 0 mm 5 mps 748 mmHg 54%
    14:00 +26°C° 0 mm 5 mps 748 mmHg 54%
    15:00 +26°C° 0,2 mm 5 mps 747 mmHg 59%
    16:00 +25°C° 0,2 mm 4 mps 747 mmHg 65%
    17:00 +23°C° 0,2 mm 4 mps 746 mmHg 71%
    18:00 +22°C° 0,5 mm 3 mps 746 mmHg 75%
    19:00 +21°C° 0,5 mm 3 mps 746 mmHg 80%
    20:00 +20°C° 0,5 mm 3 mps 746 mmHg 85%
    21:00 +19°C° 0,2 mm 3 mps 746 mmHg 88%
    22:00 +18°C° 0,2 mm 3 mps 746 mmHg 92%
    23:00 +18°C° 0,2 mm 2 mps 746 mmHg 95%

    20 Agosto, Lunes

    Tiempo Temperatura Precipitaciones Viento Presión Humedad
    00:00 +17°C° 0 mm 2 mps 746 mmHg 96%
    01:00 +16°C° 0 mm 2 mps 746 mmHg 97%
    02:00 +16°C° 0 mm 2 mps 746 mmHg 98%
    03:00 +16°C° 0,2 mm 2 mps 746 mmHg 98%
    04:00 +15°C° 0,2 mm 2 mps 747 mmHg 97%
    05:00 +15°C° 0,2 mm 2 mps 747 mmHg 97%
    06:00 +16°C° 0,1 mm 2 mps 747 mmHg 95%
    07:00 +17°C° 0,1 mm 2 mps 747 mmHg 92%
    08:00 +18°C° 0,1 mm 2 mps 748 mmHg 89%
    09:00 +19°C° 0 mm 2 mps 748 mmHg 81%
    10:00 +20°C° 0 mm 2 mps 748 mmHg 72%
    11:00 +21°C° 0 mm 3 mps 748 mmHg 63%
    12:00 +21°C° 0 mm 2 mps 748 mmHg 60%
    13:00 +23°C° 0 mm 2 mps 748 mmHg 56%
    14:00 +23°C° 0 mm 2 mps 748 mmHg 53%
    15:00 +23°C° 0 mm 2 mps 748 mmHg 56%
    16:00 +23°C° 0 mm 2 mps 748 mmHg 59%
    17:00 +22°C° 0 mm 1 mps 748 mmHg 62%
    18:00 +20°C° 0 mm 1 mps 748 mmHg 68%
    19:00 +18°C° 0 mm 1 mps 748 mmHg 73%
    20:00 +15°C° 0 mm 1 mps 748 mmHg 79%
    21:00 +14°C° 0 mm 1 mps 748 mmHg 80%
    22:00 +14°C° 0 mm 1 mps 748 mmHg 82%
    23:00 +13°C° 0 mm 1 mps 748 mmHg 83%

    21 Agosto, Martes

    Tiempo Temperatura Precipitaciones Viento Presión Humedad
    00:00 +12°C° 0 mm 0 mps 747 mmHg 83%
    01:00 +11°C° 0 mm 0 mps 747 mmHg 84%
    02:00 +11°C° 0 mm 0 mps 747 mmHg 84%
    03:00 +11°C° 0 mm 0 mps 747 mmHg 84%
    04:00 +11°C° 0 mm 0 mps 747 mmHg 83%
    05:00 +12°C° 0 mm 1 mps 746 mmHg 83%
    06:00 +14°C° 0 mm 1 mps 746 mmHg 78%
    07:00 +16°C° 0 mm 1 mps 746 mmHg 73%
    08:00 +18°C° 0 mm 2 mps 746 mmHg 68%
    09:00 +19°C° 0 mm 3 mps 745 mmHg 64%
    10:00 +20°C° 0 mm 3 mps 745 mmHg 59%
    11:00 +22°C° 0 mm 4 mps 744 mmHg 55%
    12:00 +22°C° 0 mm 4 mps 744 mmHg 55%
    13:00 +22°C° 0 mm 5 mps 743 mmHg 54%
    14:00 +23°C° 0 mm 5 mps 742 mmHg 54%
    15:00 +22°C° 0,1 mm 5 mps 742 mmHg 62%
    16:00 +21°C° 0,1 mm 4 mps 742 mmHg 71%
    17:00 +20°C° 0,1 mm 4 mps 741 mmHg 79%
    18:00 +19°C° 0,4 mm 4 mps 741 mmHg 84%
    19:00 +18°C° 0,4 mm 4 mps 741 mmHg 89%
    20:00 +17°C° 0,4 mm 4 mps 741 mmHg 95%
    21:00 +17°C° 0,1 mm 4 mps 741 mmHg 95%
    22:00 +15°C° 0,1 mm 4 mps 741 mmHg 95%
    23:00 +15°C° 0,1 mm 4 mps 741 mmHg 95%
    Mostrar más